Hugo, OK

11:50 AM CDT on August 31, 2016 (GMT -0500)
Stamper Municipal

Weather History for KHHW - November, 2013

Change the Weather History Date:

Wednesday, November 6, 2013

  Actual Average Record
Temperature  
Mean Temperature 58 °F -  
Max Temperature 72 °F 67 °F 72 °F (2013)
Min Temperature 43 °F 42 °F 43 °F (2013)
Degree Days  
Heating Degree Days 8    
Growing Degree Days 8 (Base 50)    
Moisture  
Dew Point 51 °F    
Average Humidity 84    
Maximum Humidity 96    
Minimum Humidity 58    
Precipitation  
Precipitation 0.00 in - - ()
Sea Level Pressure  
Sea Level Pressure 30.17 in    
Wind  
Wind Speed 10 mph (NNW)    
Max Wind Speed 21 mph    
Max Gust Speed 26 mph    
Visibility 10 miles    
Events Rain    
Averages and records for this station are not official NWS values.
T = Trace of Precipitation, MM = Missing Value Source: NWS Daily Summary

Daily Weather History Graph

Daily Weather History Graph

Search for Another Location

Airport or City:

Trip Planner

Search our weather history database for the weather conditions in past years. The results will help you decide how hot, cold, wet, or windy it might be!

Date:

Astronomy

Nov. 06, 2013 Rise Set
Actual Time 6:46 AM CST 5:24 PM CST
Civil Twilight 6:20 AM CST 5:50 PM CST
Nautical Twilight 5:50 AM CST 6:20 PM CST
Astronomical Twilight 5:21 AM CST 6:49 PM CST
Moon 9:58 AM CST (11/6) 8:33 PM CST (11/6)
Length of Visible Light 11h 30m
Length of Day
10h 38m
Waxing Crescent, 14% of the Moon is Illuminated
Nov 6
Waxing Crescent
Nov 9
First Quarter
Nov 17
Full
Nov 25
Last Quarter
Dec 2
New

Hourly Weather History & Observations

Time (CST) Temp. Windchill Dew Point Humidity Pressure Visibility Wind Dir Wind Speed Gust Speed Precip Events Conditions
12:15 AM 70.3 °F - 69.1 °F 96% 29.97 in 10.0 mi SSW 5.8 mph - N/A   Overcast
12:35 AM 70.9 °F - 69.8 °F 96% 29.97 in 10.0 mi SSW 5.8 mph - N/A   Overcast
12:55 AM 71.2 °F - 69.8 °F 95% 29.96 in 10.0 mi SSW 6.9 mph - N/A   Overcast
1:15 AM 71.2 °F - 69.8 °F 95% 29.97 in 10.0 mi SW 5.8 mph - N/A Rain Light Rain
1:35 AM 71.4 °F - 70.0 °F 95% 29.96 in 10.0 mi SSW 6.9 mph - N/A   Overcast
1:55 AM 71.6 °F - 70.2 °F 95% 29.96 in 10.0 mi SSW 9.2 mph - N/A   Overcast
2:15 AM 71.8 °F - 70.2 °F 95% 29.96 in 10.0 mi SSW 9.2 mph - N/A   Overcast
2:35 AM 72.1 °F - 70.3 °F 94% 29.95 in 10.0 mi SSW 6.9 mph - N/A Rain Light Rain
2:55 AM 72.1 °F - 70.5 °F 95% 29.96 in 7.0 mi SW 6.9 mph - N/A Rain Light Rain
3:15 AM 72.1 °F - 70.7 °F 95% 29.96 in 7.0 mi SSW 9.2 mph - N/A   Overcast
3:35 AM 72.5 °F - 70.7 °F 94% 29.95 in 7.0 mi SSW 9.2 mph - N/A   Overcast
3:55 AM 72.5 °F - 70.9 °F 95% 29.95 in 7.0 mi SSW 9.2 mph - N/A   Overcast
4:15 AM 72.3 °F - 70.3 °F 93% 29.98 in 10.0 mi NW 19.6 mph 25.3 mph N/A   Overcast
4:35 AM 65.3 °F - 63.0 °F 92% 29.99 in 5.0 mi NNW 15.0 mph 21.9 mph N/A Rain Heavy Rain
4:55 AM 63.5 °F - 61.9 °F 94% 30.01 in 5.0 mi NW 5.8 mph - N/A Rain Rain
5:15 AM 61.9 °F - 60.3 °F 94% 30.00 in 5.0 mi NNW 11.5 mph - N/A Rain Heavy Rain
5:35 AM 59.2 °F - 57.4 °F 94% 30.02 in 10.0 mi NW 12.7 mph - N/A Rain Light Rain
5:55 AM 58.5 °F - 56.7 °F 94% 30.02 in 10.0 mi NNW 15.0 mph 20.7 mph N/A   Drizzle
6:15 AM 58.1 °F - 55.9 °F 93% 30.04 in 10.0 mi NNW 10.4 mph 18.4 mph N/A Rain Light Rain
6:35 AM 57.2 °F - 55.0 °F 92% 30.05 in 10.0 mi NNW 12.7 mph 19.6 mph N/A   Overcast
6:55 AM 56.3 °F - 54.5 °F 94% 30.05 in 10.0 mi NNW 15.0 mph 19.6 mph N/A   Overcast
7:15 AM 55.4 °F - 53.2 °F 92% 30.06 in 10.0 mi NNW 13.8 mph 21.9 mph N/A   Overcast
7:35 AM 54.9 °F - 52.9 °F 93% 30.08 in 10.0 mi NNW 16.1 mph 21.9 mph N/A   Overcast
7:55 AM 54.3 °F - 51.8 °F 91% 30.10 in 10.0 mi NNW 18.4 mph - N/A   Overcast
8:15 AM 53.8 °F - 51.6 °F 92% 30.12 in 10.0 mi NNW 13.8 mph 20.7 mph N/A   Overcast
8:35 AM 53.1 °F - 50.9 °F 92% 30.13 in 10.0 mi NNW 18.4 mph 25.3 mph N/A   Overcast
8:55 AM 52.3 °F - 50.2 °F 92% 30.16 in 10.0 mi NW 16.1 mph 25.3 mph N/A   Overcast
9:15 AM 51.8 °F - 49.3 °F 91% 30.17 in 10.0 mi NNW 15.0 mph 23.0 mph N/A   Overcast
9:35 AM 52.0 °F - 49.1 °F 90% 30.18 in 10.0 mi North 15.0 mph - N/A   Overcast
9:55 AM 52.0 °F - 47.7 °F 85% 30.17 in 10.0 mi North 20.7 mph 26.5 mph N/A   Overcast
10:15 AM 52.2 °F - 47.3 °F 83% 30.18 in 10.0 mi NNW 15.0 mph 20.7 mph N/A   Overcast
10:35 AM 51.6 °F - 46.6 °F 83% 30.20 in 10.0 mi NNW 13.8 mph 21.9 mph N/A   Overcast
10:55 AM 51.6 °F - 46.8 °F 83% 30.19 in 10.0 mi NNW 16.1 mph 19.6 mph N/A   Overcast
11:15 AM 51.4 °F - 46.8 °F 84% 30.21 in 10.0 mi NNW 11.5 mph 19.6 mph N/A   Overcast
11:35 AM 52.3 °F - 45.9 °F 79% 30.21 in 10.0 mi North 13.8 mph 20.7 mph N/A   Overcast
11:55 AM 53.2 °F - 46.4 °F 78% 30.22 in 10.0 mi North 12.7 mph 20.7 mph N/A   Overcast
12:15 PM 53.6 °F - 46.8 °F 78% 30.22 in 10.0 mi NNW 10.4 mph 16.1 mph N/A   Overcast
12:35 PM 54.5 °F - 46.6 °F 75% 30.22 in 10.0 mi NNW 16.1 mph 20.7 mph N/A   Overcast
12:55 PM 54.7 °F - 46.2 °F 73% 30.21 in 10.0 mi NNW 12.7 mph 19.6 mph N/A   Overcast
1:15 PM 56.3 °F - 46.0 °F 68% 30.21 in 10.0 mi North 11.5 mph 20.7 mph N/A   Mostly Cloudy
1:35 PM 55.4 °F - 45.5 °F 69% 30.21 in 10.0 mi NNW 13.8 mph - N/A   Scattered Clouds
1:55 PM 55.6 °F - 45.3 °F 68% 30.21 in 10.0 mi North 10.4 mph - N/A   Scattered Clouds
2:15 PM 55.4 °F - 45.3 °F 69% 30.22 in 10.0 mi NNW 12.7 mph - N/A   Scattered Clouds
2:35 PM 54.7 °F - 43.9 °F 67% 30.22 in 10.0 mi NNW 15.0 mph 20.7 mph N/A   Scattered Clouds
2:55 PM 55.2 °F - 44.2 °F 67% 30.23 in 10.0 mi North 11.5 mph 18.4 mph N/A   Clear
3:15 PM 56.1 °F - 44.2 °F 64% 30.22 in 10.0 mi North 12.7 mph 18.4 mph N/A   Clear
3:35 PM 57.0 °F - 44.4 °F 63% 30.23 in 10.0 mi North 8.1 mph 16.1 mph N/A   Clear
3:55 PM 57.6 °F - 45.3 °F 64% 30.23 in 10.0 mi North 8.1 mph - N/A   Clear
4:15 PM 57.7 °F - 43.2 °F 58% 30.23 in 10.0 mi North 11.5 mph 17.3 mph N/A   Clear
4:35 PM 57.2 °F - 42.8 °F 59% 30.24 in 10.0 mi North 10.4 mph - N/A   Clear
4:55 PM 56.5 °F - 42.6 °F 60% 30.25 in 10.0 mi North 10.4 mph - N/A   Clear
5:15 PM 55.0 °F - 42.3 °F 62% 30.26 in 10.0 mi North 8.1 mph - N/A   Clear
5:35 PM 53.6 °F - 42.4 °F 66% 30.26 in 10.0 mi North 8.1 mph - N/A   Clear
5:55 PM 52.5 °F - 42.8 °F 70% 30.27 in 10.0 mi North 4.6 mph - N/A   Clear
6:15 PM 51.3 °F - 42.8 °F 73% 30.28 in 10.0 mi North 6.9 mph - N/A   Clear
6:35 PM 50.9 °F - 42.8 °F 74% 30.28 in 10.0 mi North 5.8 mph - N/A   Clear
6:55 PM 49.8 °F - 42.8 °F 77% 30.29 in 10.0 mi North 5.8 mph - N/A   Clear
7:15 PM 49.3 °F - 42.8 °F 78% 30.30 in 10.0 mi North 4.6 mph - N/A   Clear
7:35 PM 48.0 °F - 42.8 °F 82% 30.30 in 10.0 mi NNW 4.6 mph - N/A   Clear
7:55 PM 47.3 °F - 43.0 °F 85% 30.31 in 10.0 mi NNW 4.6 mph - N/A   Clear
8:15 PM 47.5 °F - 43.2 °F 85% 30.31 in 10.0 mi NNW 5.8 mph - N/A   Clear
8:35 PM 45.7 °F 42.7 °F 42.4 °F 88% 30.32 in 10.0 mi NW 5.8 mph - N/A   Clear
8:55 PM 45.9 °F 43.6 °F 42.8 °F 89% 30.32 in 10.0 mi NNW 4.6 mph - N/A   Clear
9:15 PM 45.3 °F 43.0 °F 42.4 °F 90% 30.33 in 10.0 mi NW 4.6 mph - N/A   Clear
9:35 PM 45.5 °F 42.5 °F 42.3 °F 88% 30.34 in 10.0 mi NW 5.8 mph - N/A   Clear
9:55 PM 45.1 °F 42.0 °F 42.1 °F 89% 30.34 in 10.0 mi NW 5.8 mph - N/A   Clear
10:15 PM 45.1 °F 42.0 °F 41.9 °F 88% 30.34 in 10.0 mi NW 5.8 mph - N/A   Clear
10:35 PM 45.5 °F 42.5 °F 41.9 °F 87% 30.34 in 10.0 mi NNW 5.8 mph - N/A   Clear
10:55 PM 44.8 °F 41.6 °F 41.4 °F 88% 30.34 in 10.0 mi NNW 5.8 mph - N/A   Clear
11:15 PM 44.6 °F 41.4 °F 41.2 °F 88% 30.35 in 10.0 mi NW 5.8 mph - N/A   Clear
11:35 PM 43.7 °F 40.3 °F 41.0 °F 90% 30.35 in 10.0 mi NW 5.8 mph - N/A   Clear
11:55 PM 43.9 °F 41.3 °F 40.6 °F 88% 30.35 in 10.0 mi NNW 4.6 mph - N/A   Clear